Regional Weather Roundup
Issued by NWS Glasgow, MT

Home | Current Version | Previous Version | Text Only | Print | Product List | Glossary On
Versions: 1 2 3 4 5 6 7 8 9 10 11 12 13 14 15 16 17 18 19 20 21 22 23 24 25 26 27 28 29 30 31 32 33 34 35 36 37 38 39 40 41 42 43 44 45 46 47 48 49 50
000
ASUS45 KGGW 270715
RWRGGW
HOURLY REGIONAL WEATHER ROUNDUP FOR NORTHEAST MONTANA
NATIONAL WEATHER SERVICE GLASGOW MONTANA
100 AM MDT WED JUL 27 2016

NOTE: "FAIR" INDICATES FEW OR NO CLOUDS BELOW 12,000 FEET WITH NO
SIGNIFICANT WEATHER AND/OR OBSTRUCTIONS TO VISISBILITY.

NORTHEAST MONTANA


CITY           SKY/WX    TMP DP  RH WIND       PRES   REMARKS
GLASGOW        RAIN      62  58  86 NE5       30.12F FOG
PLENTYWOOD       N/A     59  54  83 NE7         N/A
WOLF POINT     CLOUDY    65  57  75 E8        30.06F
JORDAN           N/A     61  60  97 NW13      30.18R
WINNETT          N/A     64  57  78 N14G26      N/A
SIDNEY         CLOUDY    62  58  86 NE6       30.08R
GLENDIVE       CLOUDY    66  60  81 E8        30.09R
OPHEIM           N/A     59  55  88 E7        29.87F

FORT PECK REPORTS


CITY           SKY/WX    TMP DP  RH WIND       PRES   REMARKS
FORT PECK        N/A     60  60 100 W16G29      N/A
THE PINES        N/A     59  56  89 NW8G18      N/A

SOUTHEAST MONTANA


CITY           SKY/WX    TMP DP  RH WIND       PRES   REMARKS
BILLINGS       CLOUDY    67  54  63 N10       30.12R
MILES CITY     CLOUDY    72  56  57 E12       30.06R
BAKER          CLOUDY    59  56  89 SE9       30.12R
LIVINGSTON     CLOUDY    64  45  49 W7        30.16S

CENTRAL MONTANA


CITY           SKY/WX    TMP DP  RH WIND       PRES   REMARKS
HAVRE          CLOUDY    63  58  83 S8        30.06R
LEWISTOWN      MOCLDY    61  55  81 SE9       30.15F
GREAT FALLS    CLEAR     55  52  89 SW6       30.15R
CUT BANK       MOCLDY    55  53  93 S5        30.15F
HELENA         CLEAR     65  52  62 SW9       30.14R
BUTTE          CLEAR     50  41  71 E7        30.23S
BOZEMAN        CLEAR     62  46  55 S10       30.16R

WESTERN MONTANA


CITY           SKY/WX    TMP DP  RH WIND       PRES   REMARKS
MISSOULA       CLEAR     66  52  60 CALM      30.09R
KALISPELL      NOT AVBL

NORTH DAKOTA


CITY           SKY/WX    TMP DP  RH WIND       PRES   REMARKS
WILLISTON      CLEAR     64  55  72 NE6       30.09F
DICKINSON      CLEAR     55  54  96 CALM      30.10R
MINOT          MOCLDY    66  62  87 N5        30.06R
BISMARCK       CLOUDY    63  61  93 N6        30.05R

SOUTHERN SASKATCHEWAN


CITY           SKY/WX    TMP DP  RH WIND       PRES   REMARKS
REGINA         CLOUDY    63  52  67 NE8       30.15R
ESTEVAN        PTCLDY    57  54  88 NE5       30.11R
SWIFT CURRENT  CLEAR     59  55  88 E12       30.13R




USA.gov is the U.S. government's official web portal to all federal, state and local government web resources and services.